• In Deutschland
  • Länderverzeichnis
  • Für 7 Tage
  • Wassertemperatur
  • Satellitenkarten
  • Wetterkarte
  • Widgets
  • user-avatar
    Anmelden

    Stündliche Wetter Eichenbarleben

    Heute, 18 Oktober, Mittwoch

    Zeit Temperatur Niederschläge Wind Luftdruck Luftfeuchtigkeit
    00:00 +14°C° 0 mm 1 m/S 752 mmHg 88%
    01:00 +12°C° 0 mm 0 m/S 752 mmHg 89%
    02:00 +12°C° 0 mm 0 m/S 752 mmHg 89%
    03:00 +12°C° 0 mm 0 m/S 751 mmHg 90%
    04:00 +12°C° 0 mm 0 m/S 751 mmHg 90%
    05:00 +11°C° 0 mm 0 m/S 751 mmHg 90%
    06:00 +11°C° 0 mm 0 m/S 751 mmHg 90%
    07:00 +11°C° 0 mm 0 m/S 751 mmHg 91%
    08:00 +14°C° 0 mm 1 m/S 751 mmHg 84%
    09:00 +15°C° 0 mm 1 m/S 751 mmHg 78%
    10:00 +18°C° 0 mm 1 m/S 751 mmHg 72%
    11:00 +19°C° 0 mm 1 m/S 750 mmHg 68%
    12:00 +20°C° 0 mm 1 m/S 750 mmHg 64%
    13:00 +21°C° 0 mm 1 m/S 750 mmHg 61%
    14:00 +21°C° 0 mm 1 m/S 750 mmHg 63%
    15:00 +21°C° 0 mm 1 m/S 749 mmHg 64%
    16:00 +20°C° 0 mm 1 m/S 749 mmHg 66%
    17:00 +19°C° 0 mm 1 m/S 749 mmHg 71%
    18:00 +16°C° 0 mm 1 m/S 749 mmHg 76%
    19:00 +15°C° 0 mm 1 m/S 749 mmHg 81%
    20:00 +14°C° 0 mm 1 m/S 749 mmHg 82%
    21:00 +14°C° 0 mm 1 m/S 749 mmHg 83%
    22:00 +13°C° 0 mm 1 m/S 749 mmHg 84%
    23:00 +13°C° 0 mm 1 m/S 749 mmHg 85%

    Morgen, 19 Oktober, Donnerstag

    Zeit Temperatur Niederschläge Wind Luftdruck Luftfeuchtigkeit
    00:00 +13°C° 0 mm 1 m/S 749 mmHg 86%
    01:00 +12°C° 0 mm 1 m/S 749 mmHg 87%
    02:00 +12°C° 0 mm 1 m/S 749 mmHg 87%
    03:00 +12°C° 0 mm 1 m/S 749 mmHg 87%
    04:00 +11°C° 0 mm 1 m/S 749 mmHg 88%
    05:00 +11°C° 0 mm 1 m/S 749 mmHg 88%
    06:00 +11°C° 0 mm 1 m/S 749 mmHg 88%
    07:00 +11°C° 0 mm 1 m/S 749 mmHg 89%
    08:00 +13°C° 0 mm 1 m/S 749 mmHg 81%
    09:00 +14°C° 0 mm 1 m/S 749 mmHg 74%
    10:00 +16°C° 0 mm 2 m/S 749 mmHg 67%
    11:00 +18°C° 0 mm 2 m/S 749 mmHg 63%
    12:00 +19°C° 0 mm 2 m/S 749 mmHg 58%
    13:00 +20°C° 0 mm 2 m/S 749 mmHg 53%
    14:00 +20°C° 0 mm 2 m/S 749 mmHg 56%
    15:00 +20°C° 0 mm 2 m/S 749 mmHg 58%
    16:00 +19°C° 0 mm 2 m/S 748 mmHg 61%
    17:00 +18°C° 0 mm 2 m/S 749 mmHg 64%
    18:00 +17°C° 0 mm 2 m/S 749 mmHg 66%
    19:00 +16°C° 0 mm 2 m/S 749 mmHg 69%
    20:00 +16°C° 0 mm 2 m/S 749 mmHg 69%
    21:00 +15°C° 0 mm 2 m/S 749 mmHg 68%
    22:00 +15°C° 0 mm 2 m/S 749 mmHg 68%
    23:00 +15°C° 0 mm 2 m/S 749 mmHg 69%

    übermorgen, 20 Oktober, Freitag

    Zeit Temperatur Niederschläge Wind Luftdruck Luftfeuchtigkeit
    00:00 +15°C° 0 mm 2 m/S 749 mmHg 69%
    01:00 +15°C° 0 mm 2 m/S 749 mmHg 69%
    02:00 +15°C° 0 mm 2 m/S 750 mmHg 69%
    03:00 +14°C° 0 mm 2 m/S 750 mmHg 70%
    04:00 +14°C° 0 mm 2 m/S 750 mmHg 70%
    05:00 +14°C° 0 mm 2 m/S 750 mmHg 70%
    06:00 +14°C° 0 mm 2 m/S 750 mmHg 69%
    07:00 +14°C° 0 mm 2 m/S 750 mmHg 68%
    08:00 +15°C° 0 mm 2 m/S 750 mmHg 66%
    09:00 +16°C° 0 mm 3 m/S 750 mmHg 63%
    10:00 +17°C° 0 mm 3 m/S 750 mmHg 60%
    11:00 +18°C° 0 mm 3 m/S 750 mmHg 58%
    12:00 +18°C° 0 mm 3 m/S 750 mmHg 56%
    13:00 +19°C° 0 mm 3 m/S 750 mmHg 54%
    14:00 +19°C° 0 mm 3 m/S 750 mmHg 57%
    15:00 +18°C° 0 mm 2 m/S 749 mmHg 60%
    16:00 +18°C° 0 mm 2 m/S 749 mmHg 63%
    17:00 +17°C° 0 mm 2 m/S 749 mmHg 65%
    18:00 +17°C° 0 mm 2 m/S 750 mmHg 66%
    19:00 +16°C° 0 mm 2 m/S 750 mmHg 68%
    20:00 +16°C° 0 mm 2 m/S 750 mmHg 70%
    21:00 +15°C° 0 mm 2 m/S 750 mmHg 72%
    22:00 +14°C° 0 mm 3 m/S 750 mmHg 74%
    23:00 +14°C° 0 mm 2 m/S 750 mmHg 76%

    21 Oktober, Samstag

    Zeit Temperatur Niederschläge Wind Luftdruck Luftfeuchtigkeit
    00:00 +14°C° 0 mm 2 m/S 750 mmHg 78%
    01:00 +14°C° 0 mm 2 m/S 750 mmHg 80%
    02:00 +13°C° 0 mm 2 m/S 750 mmHg 82%
    03:00 +13°C° 0 mm 2 m/S 750 mmHg 83%
    04:00 +13°C° 0 mm 2 m/S 750 mmHg 85%
    05:00 +13°C° 0 mm 2 m/S 750 mmHg 83%
    06:00 +13°C° 0 mm 2 m/S 750 mmHg 82%
    07:00 +14°C° 0 mm 2 m/S 749 mmHg 80%
    08:00 +14°C° 0 mm 3 m/S 749 mmHg 76%
    09:00 +16°C° 0 mm 3 m/S 749 mmHg 72%
    10:00 +17°C° 0 mm 4 m/S 749 mmHg 68%
    11:00 +18°C° 0 mm 4 m/S 749 mmHg 66%
    12:00 +19°C° 0 mm 3 m/S 749 mmHg 64%
    13:00 +19°C° 0 mm 3 m/S 749 mmHg 63%
    14:00 +19°C° 0 mm 3 m/S 749 mmHg 66%
    15:00 +19°C° 0 mm 2 m/S 749 mmHg 69%
    16:00 +18°C° 0 mm 2 m/S 748 mmHg 72%
    17:00 +17°C° 0,1 mm 2 m/S 749 mmHg 75%
    18:00 +17°C° 0,1 mm 3 m/S 749 mmHg 77%
    19:00 +16°C° 0,1 mm 3 m/S 749 mmHg 80%
    20:00 +16°C° 0,6 mm 3 m/S 749 mmHg 83%
    21:00 +14°C° 0,6 mm 3 m/S 749 mmHg 86%
    22:00 +14°C° 0,6 mm 3 m/S 750 mmHg 89%
    23:00 +13°C° 0 mm 3 m/S 750 mmHg 88%

    22 Oktober, Sonntag

    Zeit Temperatur Niederschläge Wind Luftdruck Luftfeuchtigkeit
    00:00 +13°C° 0 mm 3 m/S 750 mmHg 87%
    01:00 +12°C° 0 mm 3 m/S 750 mmHg 86%
    02:00 +12°C° 0 mm 3 m/S 750 mmHg 86%
    03:00 +11°C° 0 mm 3 m/S 750 mmHg 86%
    04:00 +11°C° 0 mm 4 m/S 750 mmHg 87%
    05:00 +11°C° 0 mm 4 m/S 750 mmHg 85%
    06:00 +11°C° 0 mm 4 m/S 750 mmHg 84%
    07:00 +11°C° 0 mm 4 m/S 750 mmHg 82%
    08:00 +12°C° 0 mm 4 m/S 750 mmHg 78%
    09:00 +12°C° 0 mm 5 m/S 750 mmHg 74%
    10:00 +11°C° 0 mm 6 m/S 750 mmHg 70%
    11:00 +11°C° 0 mm 6 m/S 750 mmHg 68%
    12:00 +13°C° 0 mm 5 m/S 750 mmHg 66%
    13:00 +13°C° 0 mm 5 m/S 750 mmHg 65%
    14:00 +12°C° 0 mm 5 m/S 750 mmHg 65%
    15:00 +12°C° 0 mm 4 m/S 750 mmHg 66%
    16:00 +12°C° 0 mm 4 m/S 751 mmHg 67%
    17:00 +11°C° 0 mm 3 m/S 751 mmHg 70%
    18:00 +10°C° 0 mm 3 m/S 751 mmHg 74%
    19:00 +9°C° 0 mm 3 m/S 752 mmHg 77%
    20:00 +8°C° 0 mm 4 m/S 752 mmHg 78%
    21:00 +7°C° 0 mm 4 m/S 752 mmHg 80%
    22:00 +7°C° 0 mm 4 m/S 753 mmHg 81%
    23:00 +7°C° 0 mm 4 m/S 753 mmHg 81%

    23 Oktober, Montag

    Zeit Temperatur Niederschläge Wind Luftdruck Luftfeuchtigkeit
    00:00 +7°C° 0 mm 4 m/S 753 mmHg 80%
    01:00 +6°C° 0 mm 4 m/S 753 mmHg 80%
    02:00 +6°C° 0 mm 4 m/S 753 mmHg 79%
    03:00 +6°C° 0 mm 4 m/S 753 mmHg 79%
    04:00 +5°C° 0 mm 4 m/S 753 mmHg 78%
    05:00 +5°C° 0 mm 4 m/S 754 mmHg 80%
    06:00 +5°C° 0 mm 4 m/S 754 mmHg 81%
    07:00 +5°C° 0 mm 4 m/S 754 mmHg 83%
    08:00 +6°C° 0 mm 5 m/S 754 mmHg 78%
    09:00 +8°C° 0 mm 5 m/S 754 mmHg 74%
    10:00 +9°C° 0 mm 5 m/S 754 mmHg 70%
    11:00 +10°C° 0 mm 6 m/S 754 mmHg 68%
    12:00 +11°C° 0 mm 6 m/S 754 mmHg 67%
    13:00 +13°C° 0 mm 6 m/S 753 mmHg 66%
    14:00 +13°C° 0 mm 6 m/S 753 mmHg 68%
    15:00 +13°C° 0 mm 6 m/S 753 mmHg 70%
    16:00 +11°C° 0 mm 6 m/S 752 mmHg 72%
    17:00 +11°C° 0 mm 6 m/S 752 mmHg 72%
    18:00 +11°C° 0 mm 6 m/S 752 mmHg 73%
    19:00 +11°C° 0 mm 6 m/S 752 mmHg 74%
    20:00 +11°C° 0 mm 6 m/S 752 mmHg 75%
    21:00 +11°C° 0 mm 6 m/S 752 mmHg 76%
    22:00 +11°C° 0 mm 6 m/S 752 mmHg 78%
    23:00 +11°C° 0,1 mm 6 m/S 752 mmHg 78%
    Mehr zeigen